Regional Weather Roundup
Issued by NWS

Home | Current Version | Previous Version | Graphics & Text | Print | Product List | Glossary Off
Versions: 1 2 3 4 5 6 7 8 9 10 11 12 13 14 15 16 17 18 19 20 21 22 23 24 25 26 27 28 29 30 31 32 33 34 35 36 37 38 39 40 41 42 43 44 45 46 47 48 49 50

000
ASUS43 KBIS 311410
RWRND

NORTH DAKOTA REGIONAL WEATHER ROUNDUP
NATIONAL WEATHER SERVICE BISMARCK ND
900 AM CDT WED AUG 31 2016

NOTE: "FAIR" INDICATES FEW OR NO CLOUDS BELOW 12,000 FEET WITH NO
SIGNIFICANT WEATHER AND/OR OBSTRUCTIONS TO VISIBILITY.


NDZ001>003-009>011-017-311500-
NORTHWEST NORTH DAKOTA

CITY           SKY/WX    TMP DP  RH WIND       PRES   REMARKS
WILLISTON      SUNNY     68  56  65 SE10      30.11S
MINOT          PTSUNNY   63  54  72 E10       30.20S
MINOT AFB      PTSUNNY   61  52  71 SE15      30.20R
$$

NDZ018>021-031>035-040>046-311500-
SOUTHWEST NORTH DAKOTA

CITY           SKY/WX    TMP DP  RH WIND       PRES   REMARKS
BISMARCK       CLOUDY    65  59  81 E12       30.20R
DICKINSON      CLOUDY    60  59  96 SE15      30.14S
GARRISON         N/A     64  60  87 E12       30.18F
HETTINGER ARPT SUNNY     62  59  90 E9        30.18R
$$

NDZ004>008-012>016-024-026-027-054-311500-
NORTHEAST NORTH DAKOTA

CITY           SKY/WX    TMP DP  RH WIND       PRES   REMARKS
GRAND FORKS    PTSUNNY   58  52  80 N3        30.28R
GRND FRKS AFB  SUNNY     55  51  83 N5        30.28S
DEVILS LAKE    SUNNY     61  49  64 E8        30.28S
$$

NDZ022-023-025-028>030-036>039-047>053-311500-
SOUTHEAST NORTH DAKOTA

CITY           SKY/WX    TMP DP  RH WIND       PRES   REMARKS
FARGO          SUNNY     61  56  83 CALM      30.26R
JAMESTOWN      SUNNY     65  56  72 E5        30.25F
$$




USA.gov is the U.S. government's official web portal to all federal, state and local government web resources and services.